Weather History for Fairmont, MN

Change the Weather History Date:

Sunday, March 31, 2013

  Actual Average Record
Temperature  
Mean Temperature 36 °F -  
Max Temperature 44 °F 48 °F 79 °F (1986)
Min Temperature 28 °F 29 °F 3 °F (1969)
Degree Days  
Heating Degree Days 29    
Moisture  
Dew Point 24 °F    
Average Humidity 57    
Maximum Humidity 75    
Minimum Humidity 36    
Precipitation  
Precipitation 0.00 in - - ()
Sea Level Pressure  
Sea Level Pressure 29.97 in    
Wind  
Wind Speed - (North)    
Max Wind Speed -    
Max Gust Speed -    
Visibility 8 miles    
Events      
Averages and records for this station are not official NWS values.
T = Trace of Precipitation, MM = Missing Value Source: NWS Daily Summary

Daily Weather History Graph

Daily Weather History Graph

Search for Another Location

Airport:

Trip Planner

Search our weather history database for the weather conditions in past years. The results will help you decide how hot, cold, wet, or windy it might be!

Date:

Astronomy

Mar. 31, 2013 Rise Set
Actual Time 7:00 AM CDT 7:43 PM CDT
Civil Twilight 6:31 AM CDT 8:12 PM CDT
Nautical Twilight 5:57 AM CDT 8:47 PM CDT
Astronomical Twilight 5:21 AM CDT 9:22 PM CDT
Moon No Moon Rise 9:41 AM CDT (3/31)
Length of Visible Light 13h 40m
Length of Day
12h 43m
Waning Gibbous, 77% of the Moon is Illuminated
Mar 31
Waning Gibbous
Apr 2
Last Quarter
Apr 10
New
Apr 18
First Quarter
Apr 25
Full

Hourly Weather History & Observations

Time (CDT) Temp. Dew Point Humidity Pressure Visibility Wind Dir Wind Speed Gust Speed Precip Events Conditions
12:15 AM 39.2 °F 32.0 °F 75% 29.92 in 3.0 mi North - - N/A   Clear
12:35 AM 39.2 °F 30.2 °F 70% 29.92 in 2.5 mi North - - N/A   Partly Cloudy
12:55 AM 39.2 °F 30.2 °F 70% 29.92 in 0.5 mi North - - N/A   Overcast
1:15 AM 39.2 °F 30.2 °F 70% 29.92 in 0.2 mi North - - N/A   Overcast
1:35 AM 39.2 °F 30.2 °F 70% 29.92 in 0.2 mi North - - N/A   Overcast
1:55 AM 39.2 °F 30.2 °F 70% 29.92 in 0.2 mi North - - N/A   Overcast
2:15 AM 39.2 °F 30.2 °F 70% 29.93 in 0.5 mi North - - N/A   Overcast
2:35 AM 39.2 °F 30.2 °F 70% 29.93 in 0.8 mi North - - N/A   Overcast
2:55 AM 39.2 °F 32.0 °F 75% 29.92 in 0.5 mi North - - N/A   Overcast
3:15 AM 39.2 °F 32.0 °F 75% 29.92 in 1.5 mi North - - N/A   Overcast
3:35 AM 39.2 °F 30.2 °F 70% 29.92 in 2.5 mi North - - N/A   Overcast
3:55 AM 39.2 °F 30.2 °F 70% 29.91 in 2.5 mi North - - N/A   Overcast
4:15 AM 39.2 °F 30.2 °F 70% 29.90 in 3.0 mi North - - N/A   Overcast
4:35 AM 39.2 °F 30.2 °F 70% 29.90 in 3.0 mi North - - N/A   Overcast
4:55 AM 39.2 °F 30.2 °F 70% 29.89 in 4.0 mi North - - N/A   Overcast
5:15 AM 37.4 °F 30.2 °F 75% 29.89 in 5.0 mi North - - N/A   Scattered Clouds
5:35 AM 37.4 °F 28.4 °F 70% 29.89 in 5.0 mi North - - N/A   Clear
5:55 AM 37.4 °F 28.4 °F 70% 29.88 in 5.0 mi North - - N/A   Clear
6:15 AM 37.4 °F 30.2 °F 75% 29.89 in 9.0 mi North - - N/A   Clear
6:35 AM 39.2 °F 30.2 °F 70% 29.88 in 10.0 mi North - - N/A   Clear
6:55 AM 39.2 °F 30.2 °F 70% 29.88 in 10.0 mi North - - N/A   Clear
7:15 AM 39.2 °F 30.2 °F 70% 29.89 in 10.0 mi North - - N/A   Clear
7:35 AM 39.2 °F 30.2 °F 70% 29.89 in 10.0 mi North - - N/A   Clear
7:55 AM 41.0 °F 28.4 °F 61% 29.89 in 10.0 mi North - - N/A   Clear
8:15 AM 42.8 °F 30.2 °F 61% 29.89 in 10.0 mi North - - N/A   Clear
8:35 AM 42.8 °F 30.2 °F 61% 29.89 in 10.0 mi North - - N/A   Clear
8:55 AM 42.8 °F 28.4 °F 57% 29.89 in 10.0 mi North - - N/A   Clear
9:15 AM 41.0 °F 28.4 °F 61% 29.90 in 10.0 mi North - - N/A   Mostly Cloudy
9:35 AM 39.2 °F 26.6 °F 61% 29.90 in 10.0 mi North - - N/A   Overcast
9:55 AM 41.0 °F 26.6 °F 57% 29.91 in 10.0 mi North - - N/A   Overcast
10:15 AM 39.2 °F 26.6 °F 61% 29.93 in 10.0 mi North - - N/A   Overcast
10:35 AM 39.2 °F 26.6 °F 61% 29.93 in 9.0 mi North - - N/A   Overcast
10:55 AM 39.2 °F 26.6 °F 61% 29.94 in 10.0 mi North - - N/A   Overcast
11:15 AM 39.2 °F 26.6 °F 61% 29.95 in 10.0 mi North - - N/A   Overcast
11:35 AM 42.8 °F 28.4 °F 57% 29.94 in 10.0 mi North - - N/A   Mostly Cloudy
11:55 AM 42.8 °F 26.6 °F 53% 29.95 in 10.0 mi North - - N/A   Mostly Cloudy
12:15 PM 42.8 °F 24.8 °F 49% 29.96 in 10.0 mi North - - N/A   Mostly Cloudy
12:35 PM 44.6 °F 21.2 °F 39% 29.96 in 10.0 mi North - - N/A   Mostly Cloudy
12:55 PM 44.6 °F 23.0 °F 43% 29.97 in 10.0 mi North - - N/A   Mostly Cloudy
1:15 PM 44.6 °F 23.0 °F 43% 29.97 in 10.0 mi North - - N/A   Scattered Clouds
1:35 PM 44.6 °F 23.0 °F 43% 29.97 in 10.0 mi North - - N/A   Mostly Cloudy
1:55 PM 42.8 °F 21.2 °F 42% 29.97 in 10.0 mi North - - N/A   Mostly Cloudy
2:15 PM 44.6 °F 21.2 °F 39% 29.97 in 10.0 mi North - - N/A   Mostly Cloudy
2:35 PM 42.8 °F 21.2 °F 42% 29.97 in 10.0 mi North - - N/A   Overcast
2:55 PM 44.6 °F 21.2 °F 39% 29.97 in 10.0 mi North - - N/A   Mostly Cloudy
3:15 PM 42.8 °F 19.4 °F 39% 29.98 in 10.0 mi North - - N/A   Scattered Clouds
3:35 PM 42.8 °F 19.4 °F 39% 29.98 in 10.0 mi North - - N/A   Scattered Clouds
3:55 PM 42.8 °F 19.4 °F 39% 29.98 in 10.0 mi North - - N/A   Mostly Cloudy
4:15 PM 42.8 °F 19.4 °F 39% 29.98 in 10.0 mi North - - N/A   Partly Cloudy
4:35 PM 42.8 °F 19.4 °F 39% 29.99 in 10.0 mi North - - N/A   Partly Cloudy
4:55 PM 41.0 °F 17.6 °F 39% 29.99 in 10.0 mi North - - N/A   Partly Cloudy
5:15 PM 41.0 °F 15.8 °F 36% 30.00 in 10.0 mi North - - N/A   Scattered Clouds
5:35 PM 39.2 °F 17.6 °F 42% 30.01 in 10.0 mi North - - N/A   Mostly Cloudy
5:55 PM 39.2 °F 15.8 °F 39% 30.01 in 10.0 mi North - - N/A   Mostly Cloudy
6:15 PM 37.4 °F 17.6 °F 45% 30.02 in 10.0 mi North - - N/A   Overcast
6:35 PM 37.4 °F 17.6 °F 45% 30.03 in 10.0 mi North - - N/A   Overcast
6:55 PM 35.6 °F 19.4 °F 52% 30.03 in 10.0 mi North - - N/A   Mostly Cloudy
7:15 PM 35.6 °F 17.6 °F 48% 30.04 in 10.0 mi North - - N/A   Mostly Cloudy
7:35 PM 33.8 °F 17.6 °F 52% 30.04 in 10.0 mi North - - N/A   Mostly Cloudy
7:55 PM 33.8 °F 15.8 °F 48% 30.05 in 10.0 mi North - - N/A   Mostly Cloudy
8:15 PM 33.8 °F 15.8 °F 48% 30.06 in 10.0 mi North - - N/A   Mostly Cloudy
8:35 PM 32.0 °F 15.8 °F 51% 30.07 in 10.0 mi North - - N/A   Partly Cloudy
9:15 PM 30.2 °F 15.8 °F 55% 30.09 in 10.0 mi North - - N/A   Clear
9:35 PM 30.2 °F 15.8 °F 55% 30.10 in 10.0 mi North - - N/A   Clear
9:55 PM 30.2 °F 15.8 °F 55% 30.11 in 10.0 mi North - - N/A   Clear
10:15 PM 30.2 °F 15.8 °F 55% 30.11 in 10.0 mi North - - N/A   Clear
10:35 PM 28.4 °F 15.8 °F 59% 30.12 in 10.0 mi North - - N/A   Clear
10:55 PM 28.4 °F 15.8 °F 59% 30.13 in 10.0 mi North - - N/A   Clear
11:15 PM 28.4 °F 14.0 °F 55% 30.13 in 10.0 mi North - - N/A   Clear
11:35 PM 28.4 °F 14.0 °F 55% 30.14 in 10.0 mi North - - N/A   Clear